STARLINK-30565, 58034

Orbit data source: Space-Track

STARLINK-30565, 58034 is a payload satellite owned by SpaceX/Seattle (US) in LEO that was launched on Mon, 09 Oct 2023 UTC via an FALCON 9 launch vehicle from the Air Force Western Test Range (AFWTR). Payload-class satellites include a variety of spacecraft equipped with specific instruments for various scientific and technological missions. These include communications satellites like Starlink; space stations such as the ISS; scientific satellites like the Hubble; Earth observation satellites from companies like Planet Labs, Umbra, and HawkEye 360; GPS; miniature CubeSats for education and research; and military/defense satellites.

Loading next visibility...
Identifier
58034, 2023-156G
Orbit
LEO
Country
Flag of USUS
Related business
Manufacturer
SpaceX/Seattle
Mission
Operational Commercial Communications
Bus & Motor
STARLINK V2M, Unknown motor
Mass
730 kg wet, ~700 kg dry
Launch date (UTC)
2023-10-09 (3 years ago)
Launch vehicle
FALCON 9
Launch site
Air Force Western Test Range (AFWTR)
Object type
Payload
Rocket body
Debris
Shape & HBR
Box + 2 Pan, 17.7 m
Radar Cross Section
33.884 m², Large (>1 m²)

Expand to show TLE details & history
Last TLE update: 3 days ago

TLE from 3 days ago
0 STARLINK-30565
1 58034U 23156G   26170.72146526 -.00002519  00000-0 -72945-4 0  9996
2 58034  53.1610 324.5506 0001093  89.9896 270.1230 15.30208359151935
Epoch: 2026-06-19T17:18Z
TLE epoch observation values (Epoch: 2026-06-19T17:18:54.598Z)
Latitude
-0.00002°
Longitude
156.87672°
Altitude
476.088 km
Speed
7.629 km/s
True Right ascension
21h 38m 12s
True Declination
0° 00' 00"
Sunlit
Object was in full shadow at epoch
Visualization orbit readout
Latitude
Unknown
Longitude
Unknown
Altitude
Unknown
Speed
Unknown
Apparent Right ascension
Unknown
Apparent Declination
Unknown
Sunlit
N/A
Visualization observer readout
Local Sidereal Time
21:51:59
Azimuth
Unknown
Elevation
Unknown
Doppler factor
Unknown
Orbital elements
Apogee altitude
476.195 km
Perigee altitude
474.697 km
Semi-major axis
6,853.583 km
Eccentricity
0.00011
Inclination
53.161°
RAAN
324.5506°
Arg. of periapsis
89.9896°
True anomaly
270.11048°
Mean anomaly
270.123°
Eccentric anomaly
270.11674°
Mean motion
3.82531 °/min
Orbital period
94.11 mins
BSTAR
-0.000072945
Loading maneuver chart data...
Computing Atmospheric mass density...
Loading historical data...
Loading historical data...
Loading historical data...
Loading historical data...
Loading historical data...
Loading historical data...
Loading historical data...

Documentation

Showing up to 5 results
|